GFSSE_925_thetae_000.txt.gz
Theta_e
329 329 330 333 335 335 337 338 336 336 337 337 338 338 338 338 338 338 338 337 337 337 338 339 338 340 340 338 337 337 337 334 330 325 321 322 336 341 342 341 340 339 345
325 326 327 332 333 332 333 335 336 337 337 336 336 336 336 337 338 337 338 337 338 338 338 338 338 338 337 337 336 336 335 336 337 334 328 321 332 342 343 343 342 339 340
324 327 325 328 329 328 330 332 333 334 334 334 335 334 334 334 335 335 335 336 337 337 338 339 339 338 337 336 335 334 334 332 332 334 333 334 331 340 342 343 342 341 339
322 323 322 324 326 326 328 327 329 332 333 333 333 332 331 331 331 331 331 329 330 332 333 334 335 335 335 338 337 336 333 331 330 329 330 339 337 335 340 342 343 341 341
320 320 320 322 323 324 324 324 325 328 327 328 329 327 325 327 327 326 327 326 327 328 328 331 330 329 328 328 334 336 335 335 331 328 333 335 339 340 334 335 340 341 341
318 318 319 320 320 320 319 319 319 320 320 323 320 318 316 318 317 318 317 317 316 317 319 323 323 323 325 327 327 328 330 331 331 331 333 334 335 336 340 339 332 337 340
317 316 315 317 317 316 316 316 315 314 313 315 314 312 310 310 310 310 310 310 311 311 311 314 310 305 306 311 317 322 326 328 329 330 331 333 333 335 334 336 337 331 337
315 314 310 313 313 312 311 311 310 310 309 307 305 306 303 301 298 299 299 304 303 301 304 305 301 300 298 299 299 301 308 317 323 327 328 330 331 332 333 335 336 336 333
308 309 307 306 306 305 304 303 303 302 301 298 297 296 296 297 296 296 296 296 296 297 297 297 297 297 297 297 298 298 298 299 303 313 321 329 332 331 333 334 334 331 334
304 304 304 304 302 300 298 297 298 297 296 296 296 297 300 301 299 296 295 295 296 296 297 298 298 297 297 301 302 302 300 302 308 317 323 329 332 331 334 333 333 331 332
303 303 303 303 302 302 300 295 295 295 295 298 298 299 299 298 296 297 296 296 297 298 303 303 303 303 300 298 300 301 301 303 303 304 304 307 317 323 329 332 333 332 331
302 302 301 302 301 301 300 297 299 298 299 298 297 297 297 297 296 297 296 296 295 296 297 298 299 298 296 297 298 299 300 300 300 302 303 304 307 313 319 324 330 332 331
303 301 301 301 301 300 298 299 298 298 297 297 296 296 296 296 296 296 295 295 295 295 294 294 294 294 295 295 297 299 300 300 301 301 302 302 302 307 309 312 317 323 327
304 302 301 300 300 299 298 298 299 298 298 297 296 295 296 296 295 295 294 294 294 294 293 293 293 293 294 294 296 296 297 298 298 299 299 299 300 304 307 309 311 313 316
305 303 301 299 299 299 299 298 299 298 297 297 296 294 295 294 294 294 294 294 294 293 292 292 292 293 293 293 294 294 294 295 295 295 296 297 298 303 305 307 309 311 313
306 304 301 299 299 299 299 298 298 298 297 296 296 294 293 293 293 293 293 293 293 292 291 291 292 292 292 293 293 293 293 294 294 294 294 295 296 299 302 304 306 308 310
307 304 301 299 298 298 298 298 298 297 296 295 295 294 292 292 293 292 292 292 291 291 290 290 291 291 291 292 292 292 293 293 293 293 294 295 296 297 300 303 305 306 307
306 303 300 298 298 298 297 297 297 296 295 294 294 293 292 292 292 291 291 291 291 290 290 290 290 291 290 291 291 291 293 291 291 292 293 295 297 298 299 299 301 303 304
306 302 300 298 298 297 297 296 296 296 294 293 292 292 291 291 291 290 291 290 289 289 289 289 290 289 290 290 291 292 290 291 291 293 294 296 297 298 298 299 300 301 303
305 301 299 297 297 296 296 295 295 294 293 292 292 291 291 290 290 289 289 289 289 288 288 289 289 289 289 290 291 290 291 290 293 294 295 297 298 300 300 300 301 302 302
304 300 298 297 296 296 295 294 293 293 292 292 291 290 290 290 289 289 289 288 288 288 288 288 288 289 289 289 290 290 290 293 292 295 296 297 298 298 298 298 298 299 301
303 300 298 297 296 295 295 293 293 292 292 291 290 290 289 289 288 288 288 288 288 287 287 287 288 289 288 290 289 289 289 291 294 292 292 293 296 297 297 298 298 296 295
301 299 298 296 296 295 294 293 293 293 292 291 290 290 289 289 288 288 288 288 287 286 286 287 287 288 288 287 288 289 289 289 290 292 292 291 292 293 293 293 294 296 294
300 298 297 296 296 295 294 293 293 292 290 291 291 290 289 289 288 288 288 287 286 286 286 286 286 287 286 286 287 288 289 290 289 289 291 290 289 292 293 292 292 294 293
300 298 297 296 295 294 294 293 293 291 291 291 290 290 289 288 287 288 287 286 286 285 285 285 285 285 285 286 286 286 287 287 288 288 288 288 289 288 289 290 290 290 291
300 298 297 296 295 294 293 292 292 291 291 291 290 289 288 287 287 287 286 286 285 284 284 284 284 284 283 283 284 284 285 286 286 286 286 286 286 287 287 287 288 288 289

GFSSE_925_thetae_003.txt.gz
Theta_e
329 331 335 335 336 337 338 335 336 336 337 337 337 336 337 338 337 337 337 337 337 336 336 336 337 339 338 337 336 337 336 336 335 332 329 322 330 342 342 343 341 338 341
328 329 331 334 335 335 336 336 336 336 336 336 336 336 336 337 336 336 338 337 337 337 337 339 339 339 338 337 336 335 336 333 332 333 332 331 332 340 342 342 342 340 338
326 325 328 330 331 332 333 333 333 334 334 334 334 334 335 334 335 335 334 334 335 335 335 335 336 335 336 336 337 336 335 333 330 328 328 338 336 338 340 341 342 341 341
327 325 325 327 327 329 329 331 332 333 334 334 334 333 332 333 333 333 333 333 332 332 333 332 332 330 328 330 333 335 335 334 331 327 328 333 338 336 335 337 340 342 342
324 323 322 325 328 328 328 327 332 332 333 332 331 329 329 327 326 325 324 323 323 324 326 329 327 326 326 327 329 329 329 330 331 329 326 331 335 335 338 338 335 334 339
321 319 321 324 326 325 325 326 327 326 329 324 322 321 321 320 318 316 314 315 314 313 316 317 316 314 311 313 317 321 324 326 328 329 329 329 331 332 336 335 335 337 333
320 319 320 321 321 321 320 320 319 319 322 317 315 313 312 312 312 311 312 312 311 312 313 312 312 310 309 304 302 302 305 311 319 324 327 329 332 334 334 334 333 331 333
318 317 317 317 317 316 317 317 315 315 314 313 311 309 308 306 305 304 306 308 307 309 310 310 310 309 309 309 307 301 299 299 299 303 311 318 324 329 333 334 333 331 329
316 315 312 312 311 310 311 308 307 305 304 302 301 298 298 297 297 296 296 297 297 301 307 308 308 308 308 309 309 307 302 304 306 310 318 324 332 332 336 334 333 332 330
314 314 309 309 308 306 305 304 302 302 299 298 297 297 298 297 297 296 296 297 297 302 306 307 306 305 300 299 300 300 301 302 302 303 306 310 315 321 327 332 334 334 333
307 307 307 305 303 302 301 300 299 298 296 296 298 300 300 297 297 297 296 296 298 300 300 299 299 295 295 296 296 298 298 299 300 301 301 303 306 312 316 321 326 331 333
305 305 305 304 303 303 302 298 297 296 297 299 299 299 298 296 297 297 296 295 295 295 295 294 294 295 295 295 295 296 296 297 298 298 299 299 300 308 311 313 315 318 322
304 304 304 303 302 302 301 297 298 299 299 299 298 297 297 296 296 296 295 296 296 295 295 295 295 294 294 294 294 295 295 295 295 296 296 296 299 305 308 310 312 314 315
303 303 303 302 302 301 300 299 299 298 298 297 297 296 296 296 296 295 295 295 295 295 295 295 295 294 293 293 293 294 293 294 294 295 295 295 296 303 306 309 310 312 314
303 303 303 302 301 301 299 298 299 298 298 298 297 296 296 296 295 295 295 295 295 294 294 294 293 293 292 292 292 292 292 293 293 293 293 294 294 299 303 306 308 310 311
304 304 303 302 301 300 299 298 298 298 298 297 296 295 296 295 294 294 294 294 294 293 293 293 292 292 291 291 291 291 291 292 292 292 292 293 294 294 300 302 306 308 309
305 304 304 302 300 300 299 298 298 298 298 297 296 294 294 294 294 294 294 293 293 292 292 292 292 291 291 290 290 290 291 291 291 291 293 294 296 296 297 300 302 303 305
306 305 304 301 300 299 299 298 298 298 297 296 296 295 293 293 293 293 293 293 293 292 292 291 291 290 290 290 290 290 290 291 291 293 294 294 295 296 298 298 299 302 303
306 306 304 301 300 299 298 298 298 297 296 295 295 294 293 292 293 292 292 292 292 291 291 290 290 289 289 289 289 290 290 290 292 292 293 295 297 297 298 299 298 299 301
306 306 303 300 299 298 298 297 297 296 295 294 294 293 292 292 292 292 292 292 291 290 290 289 289 289 289 289 289 290 289 291 292 292 296 296 296 296 298 297 297 297 299
304 302 300 299 298 298 297 297 296 295 294 293 293 292 292 291 291 291 290 290 289 289 289 289 289 289 289 289 289 289 290 290 292 294 293 292 293 295 296 296 298 298 297
302 300 299 298 298 297 297 296 295 295 293 293 292 291 291 290 290 290 290 289 289 289 289 288 288 288 288 289 288 289 288 290 293 291 292 291 290 292 292 294 294 294 295
299 298 298 298 298 297 296 295 294 294 293 291 291 290 290 290 290 290 289 289 288 289 289 288 288 288 288 287 287 289 288 289 289 291 290 291 292 291 290 291 291 292 291
298 298 298 298 297 296 296 294 294 292 291 291 291 290 290 289 289 289 288 288 288 288 289 288 287 287 287 287 287 288 289 288 288 288 290 289 288 290 288 288 288 289 289
298 297 297 297 296 295 295 294 293 292 291 292 291 290 289 289 288 288 288 288 287 288 288 287 286 286 286 286 286 286 286 286 287 287 287 287 286 286 286 287 287 287 288
298 297 296 296 295 295 295 294 293 292 292 291 290 290 289 289 288 288 288 287 287 287 288 287 286 285 285 284 284 284 285 285 286 285 285 285 285 285 285 285 286 287 287

GFSSE_925_thetae_006.txt.gz
Theta_e
331 331 334 336 337 335 334 334 335 335 338 338 336 335 337 337 336 337 338 337 336 336 336 338 339 338 338 337 335 336 336 333 333 333 330 331 338 341 341 342 341 339 340
330 331 334 335 336 338 338 335 336 336 336 337 338 335 336 336 336 336 336 337 337 338 339 338 337 336 337 336 336 336 335 333 329 328 330 334 336 339 343 341 340 340 339
328 329 332 335 335 335 336 335 336 335 336 336 335 336 334 334 334 333 333 333 333 333 334 334 333 331 333 334 336 336 336 333 329 326 328 336 335 336 339 340 342 342 341
326 327 328 331 330 334 334 333 333 334 334 334 333 332 332 332 332 331 330 330 330 331 331 331 330 328 328 330 331 333 333 332 331 330 327 332 335 337 339 336 334 335 339
325 323 325 327 328 328 328 331 332 331 333 332 331 330 330 329 327 325 323 322 321 323 324 322 320 319 319 321 323 326 327 327 328 329 329 330 333 333 339 335 333 334 332
325 323 324 327 330 326 324 327 332 331 331 330 328 326 324 322 319 317 316 316 314 315 316 316 315 313 307 306 309 313 313 316 321 326 328 328 330 333 335 338 334 333 331
323 321 322 327 327 324 323 328 328 330 325 322 320 317 314 313 312 312 312 310 309 311 312 312 312 310 309 308 307 303 299 299 300 306 315 323 326 328 332 336 334 332 331
321 320 320 324 323 323 323 322 320 323 315 310 306 305 305 306 304 304 302 300 304 309 309 309 309 310 311 311 311 304 302 303 303 306 312 316 324 331 334 334 333 332 331
319 318 319 320 320 320 317 312 312 316 312 309 307 307 305 301 298 297 300 303 308 309 309 308 308 303 303 304 301 299 301 302 302 304 308 312 316 322 326 331 334 335 334
318 317 317 317 316 315 313 310 310 310 307 307 304 300 298 297 296 296 297 300 307 307 305 305 299 296 296 296 297 297 298 299 299 300 301 302 305 314 318 320 323 329 332
316 316 314 313 312 310 309 310 311 306 303 301 301 298 298 297 297 297 298 298 297 297 297 297 296 295 295 295 296 296 296 297 297 297 298 298 301 310 312 314 316 317 320
315 315 314 310 310 308 306 307 306 303 299 297 298 299 298 297 297 297 296 296 296 296 295 295 295 295 295 295 295 295 295 295 295 295 296 296 297 306 309 311 313 314 315
310 311 311 309 307 304 302 303 302 300 297 297 299 299 298 297 297 296 296 296 296 295 295 295 295 295 295 294 294 294 294 294 294 295 294 294 294 302 307 309 311 312 314
304 307 307 307 305 303 302 300 299 297 298 299 299 298 298 297 297 296 296 296 296 295 295 295 295 295 294 294 294 293 293 293 294 294 293 293 294 298 304 307 309 311 312
303 304 305 305 304 303 303 300 297 298 299 299 298 297 297 296 296 296 296 296 295 295 295 295 295 294 294 293 293 293 293 293 293 293 293 293 294 295 301 304 307 309 310
304 304 304 304 304 303 302 301 299 299 299 298 297 297 297 296 296 296 296 295 295 294 294 294 294 294 293 293 293 292 292 292 292 292 293 294 295 296 297 303 304 306 307
305 304 304 303 303 302 302 301 299 299 298 298 297 296 297 296 295 295 295 295 294 294 294 293 293 293 292 292 292 292 292 292 292 292 293 294 296 297 298 299 302 303 305
304 305 305 303 303 302 301 301 299 299 299 298 297 295 296 295 294 294 295 294 294 293 293 293 293 292 292 292 292 292 292 292 292 292 292 295 296 297 297 298 298 298 302
307 305 304 304 303 302 301 300 299 298 298 298 297 295 294 294 294 294 294 293 293 293 293 293 292 292 291 291 291 291 291 291 291 291 294 292 292 295 294 296 297 297 297
307 305 305 303 302 301 300 299 299 298 298 298 297 296 294 293 293 293 293 293 293 293 292 292 291 290 290 290 290 290 290 290 290 292 294 291 291 294 293 295 297 296 297
305 304 303 301 300 300 299 299 298 298 297 297 296 295 294 292 292 292 292 292 292 292 291 291 290 290 289 289 289 289 290 290 292 291 291 290 291 291 292 292 293 292 292
304 302 301 300 300 300 299 297 297 296 296 296 295 294 293 292 292 292 292 292 291 291 290 290 290 289 289 288 288 288 287 289 292 290 290 290 290 291 290 289 288 288 288
301 301 300 299 299 299 298 297 296 295 294 294 293 293 292 291 291 291 291 291 290 290 290 289 289 289 288 287 287 287 286 287 287 289 288 289 289 288 288 287 286 287 287
300 299 299 298 298 298 298 297 295 295 294 292 292 292 292 291 290 290 290 290 290 289 288 288 288 289 288 287 287 287 288 288 286 286 287 287 288 286 286 286 286 286 286
299 298 298 298 298 297 297 296 295 294 294 293 292 292 291 290 289 289 289 289 289 289 288 288 288 289 288 287 286 286 285 285 286 286 286 286 285 285 285 285 285 286 286
297 297 297 297 297 296 296 295 295 294 294 292 292 291 290 290 289 288 289 288 288 288 288 287 287 287 287 286 285 284 284 284 285 285 284 284 283 284 285 285 285 285 285

GFSSE_925_thetae_009.txt.gz
Theta_e
332 329 333 337 338 338 338 336 333 333 335 337 336 338 338 337 337 337 337 337 337 337 339 339 338 338 341 336 334 335 337 331 328 329 332 332 337 340 342 341 340 339 338
331 330 332 334 337 337 337 337 335 336 337 337 337 337 337 336 336 337 337 337 338 339 339 337 335 334 336 336 336 336 335 334 328 326 334 337 336 339 342 340 341 340 341
331 331 331 333 336 337 336 336 336 337 337 338 338 338 335 335 334 333 334 334 335 335 335 334 331 332 333 333 334 334 335 334 331 328 330 336 335 338 337 335 335 339 339
331 330 331 333 334 337 336 335 335 336 335 335 334 334 332 333 332 331 330 330 330 332 331 329 326 325 326 326 327 329 328 329 329 329 328 332 334 336 340 336 335 334 331
329 328 329 333 334 335 336 335 335 336 334 332 331 331 332 330 329 327 324 324 324 325 324 321 319 316 316 317 320 323 325 326 326 327 328 328 331 332 336 337 333 332 332
326 327 327 329 332 334 333 333 333 332 331 331 330 331 328 326 323 320 318 316 317 318 316 313 308 304 303 304 305 306 308 312 314 319 325 326 328 331 334 338 336 332 330
325 324 325 328 332 331 327 330 330 330 332 330 329 326 324 319 317 315 313 312 311 311 312 305 303 304 304 309 308 301 299 299 301 303 309 315 321 326 335 335 335 334 331
325 323 322 326 330 329 325 328 330 330 329 326 324 321 318 316 315 314 313 312 312 313 312 311 310 305 303 302 300 299 300 301 302 305 309 313 319 324 327 330 333 335 334
324 322 321 323 326 326 328 328 327 327 324 321 318 315 313 308 306 308 305 310 312 312 311 308 302 300 300 299 298 298 299 300 300 301 304 309 316 320 321 322 327 328 331
322 321 320 321 322 322 322 322 323 323 319 316 314 312 309 301 298 298 299 308 310 309 307 301 297 297 297 297 297 297 298 298 298 299 299 300 303 313 317 317 318 324 326
320 319 319 319 319 319 318 317 318 318 313 311 310 305 298 297 297 298 300 305 305 303 302 298 296 296 296 296 296 296 296 296 296 296 296 297 300 309 312 313 315 316 317
318 318 318 318 317 317 316 314 313 311 309 307 304 300 299 297 297 299 299 298 297 297 296 296 296 295 296 295 295 295 295 295 295 295 295 296 297 305 309 311 313 314 315
316 317 317 316 316 315 314 313 312 310 307 305 302 299 298 297 297 297 297 296 297 297 296 296 296 296 295 295 294 294 294 294 294 294 294 294 294 302 307 309 311 312 313
313 315 316 315 314 313 311 310 309 308 305 301 299 299 299 297 297 297 297 297 297 296 296 296 296 295 295 294 294 294 294 294 293 293 293 293 294 299 305 307 309 311 312
306 311 314 314 313 311 310 307 306 305 303 298 299 299 299 297 297 297 296 296 296 296 295 295 295 294 294 294 294 294 293 293 293 293 293 294 295 297 303 306 308 308 309
304 306 308 311 312 310 308 304 302 302 301 298 298 299 299 298 297 296 296 296 296 296 296 295 295 295 295 294 294 293 293 293 293 292 293 294 295 297 299 304 305 306 308
306 304 305 306 308 308 307 304 302 301 298 298 299 299 298 297 296 296 295 295 295 295 295 295 295 294 294 294 294 293 293 293 292 293 293 295 296 296 297 299 302 303 305
305 306 305 304 305 306 306 304 303 300 298 299 299 298 297 297 296 295 295 295 295 294 294 294 294 293 293 293 294 293 293 292 292 292 294 292 292 295 295 296 297 300 302
307 305 305 304 304 304 304 303 303 301 299 299 298 298 297 297 296 295 294 294 294 293 293 293 293 293 293 293 293 293 292 292 291 292 293 292 291 293 295 296 296 295 297
307 306 305 303 302 302 301 302 301 301 299 299 299 298 296 296 295 294 294 294 293 293 292 292 292 292 292 292 292 292 292 291 291 292 291 290 290 291 291 292 292 291 291
307 305 304 302 301 300 299 299 299 299 298 298 298 298 297 295 294 293 293 293 292 292 292 292 292 291 291 291 291 291 290 292 292 291 289 291 291 291 290 289 289 288 288
307 304 302 302 300 299 299 299 298 297 297 298 298 297 297 294 293 293 293 292 292 292 291 291 291 291 290 289 289 288 287 289 292 289 289 290 289 288 288 288 288 287 287
304 304 302 301 300 299 299 298 298 296 296 296 296 297 296 294 293 292 292 292 292 291 292 292 291 290 290 288 288 288 286 287 287 289 288 288 288 287 286 287 286 287 287
305 303 301 300 299 299 298 298 297 297 295 295 295 296 295 294 292 291 291 291 291 291 291 291 290 290 290 289 287 287 287 288 286 285 287 287 287 286 286 286 286 286 286
303 302 301 299 298 298 298 298 297 296 296 296 295 295 295 294 293 291 291 290 290 290 290 290 290 289 289 289 288 287 286 285 285 285 285 285 285 285 284 284 285 285 285
300 299 298 297 297 297 297 297 297 296 296 295 293 293 293 293 292 291 290 290 290 289 289 289 289 289 288 288 287 287 286 285 285 284 284 283 283 284 284 285 285 285 285

GFSSE_925_thetae_012.txt.gz
Theta_e
328 325 334 338 339 339 339 338 334 332 333 334 336 337 338 337 338 336 335 336 337 339 339 338 338 337 338 337 335 335 334 329 327 331 334 338 339 341 341 339 339 339 337
327 325 329 335 338 339 338 337 334 333 334 337 337 338 337 337 337 337 337 338 338 338 336 335 334 334 334 335 335 335 335 331 326 327 335 335 338 340 339 337 341 340 339
326 328 331 335 337 337 338 336 334 334 337 336 337 336 335 335 335 336 336 336 336 335 334 333 330 330 331 332 333 332 331 330 328 325 332 335 336 340 339 336 334 333 334
327 329 331 332 334 336 335 335 335 336 337 338 336 335 334 333 332 332 333 333 333 333 331 328 324 325 325 325 326 326 326 327 328 328 326 331 333 336 339 336 332 331 331
330 330 330 331 333 336 335 334 335 335 335 334 333 332 332 332 331 329 328 328 328 328 325 323 320 316 315 317 319 322 324 325 325 326 326 327 329 330 333 338 336 331 329
331 330 330 331 333 335 337 336 335 337 334 332 331 331 332 330 328 325 322 322 322 321 319 314 307 306 307 306 305 305 307 309 311 316 322 324 326 330 336 336 336 334 331
329 329 328 328 332 336 335 334 334 334 333 331 330 330 329 326 323 321 319 318 317 315 312 310 311 312 308 302 301 299 299 299 300 303 309 315 322 327 331 333 333 335 333
326 327 326 327 329 335 333 333 332 332 330 331 330 328 325 321 319 317 315 315 314 314 313 313 311 308 306 301 299 299 300 300 301 303 305 310 318 323 325 326 329 332 333
325 324 324 325 327 330 331 330 331 327 329 329 328 324 320 318 316 315 314 314 314 314 312 304 301 300 299 298 298 298 299 299 299 300 302 306 314 319 321 321 325 327 326
325 324 323 323 326 327 327 328 327 329 329 325 323 319 316 313 313 311 310 313 313 312 304 299 298 298 298 298 298 297 298 298 298 298 298 300 304 313 316 318 320 324 326
324 323 322 322 323 324 324 327 327 328 324 320 317 315 312 306 304 303 308 311 310 306 300 299 298 298 298 297 297 297 296 296 296 296 296 297 300 310 312 314 315 316 317
321 322 322 321 321 322 322 323 323 325 321 317 314 311 306 299 299 300 306 306 302 300 299 298 298 297 297 296 296 296 295 295 295 295 295 295 297 307 310 311 313 314 315
319 320 320 320 320 320 320 319 319 320 319 314 310 307 302 298 298 300 302 301 299 297 297 297 297 296 296 296 295 295 294 294 294 294 294 294 295 303 308 310 311 313 314
315 317 319 319 319 319 318 317 316 315 314 311 308 305 301 299 298 299 300 297 296 296 297 296 296 296 295 295 294 294 293 293 293 293 293 294 296 305 308 310 311 311 312
313 314 316 318 318 318 317 316 315 313 311 309 306 304 300 298 298 298 297 296 296 296 296 296 296 296 296 295 294 294 293 293 293 293 293 294 296 302 307 308 309 310 311
308 311 313 315 316 316 316 315 314 312 310 308 305 302 300 299 298 297 297 296 296 295 296 295 296 296 295 295 294 294 293 293 292 293 293 295 297 298 304 305 306 308 308
307 307 309 311 314 315 315 314 313 310 309 308 304 300 299 299 297 297 297 296 296 295 294 294 295 294 294 294 294 293 293 292 292 292 294 295 296 297 301 304 304 306 307
307 307 306 306 309 313 314 313 312 309 307 306 304 299 299 299 298 297 296 296 295 294 293 294 294 293 294 294 294 294 293 292 291 293 292 292 293 294 296 296 298 301 301
308 307 306 305 306 307 310 311 310 309 306 304 303 298 298 299 298 297 296 295 294 293 293 293 293 293 293 294 293 293 292 291 291 292 291 291 293 294 294 294 293 292 292
309 307 306 304 304 304 305 305 305 305 303 302 301 298 299 299 298 297 296 295 294 293 293 292 293 293 293 293 293 292 291 291 292 291 290 291 291 291 291 291 290 289 289
307 305 304 303 302 301 301 301 300 301 301 301 300 298 299 298 297 297 295 294 294 293 293 292 292 292 292 292 292 291 291 291 290 289 291 291 290 289 289 288 288 288 288
308 306 303 303 301 301 300 299 300 299 299 300 299 298 298 298 297 296 295 294 293 292 292 292 292 291 291 291 291 289 288 289 291 290 290 289 289 288 288 288 287 287 287
305 305 304 303 301 300 300 298 299 299 298 297 297 298 298 298 297 296 295 294 293 292 292 292 291 292 292 290 290 290 286 288 287 288 288 288 288 288 287 287 287 287 287
307 306 304 302 300 300 299 298 298 298 297 297 296 297 298 298 297 295 294 293 292 292 291 291 291 291 292 291 289 289 289 289 286 286 287 287 287 287 287 286 286 286 286
304 304 303 302 300 299 298 298 297 297 297 298 296 296 296 297 296 294 293 292 292 291 291 291 290 290 291 291 291 288 287 287 287 285 285 286 287 286 286 285 285 285 286
300 299 300 299 298 298 298 297 297 297 297 296 296 295 295 295 295 294 293 292 291 291 291 290 290 290 290 290 290 290 289 286 285 285 284 284 283 285 285 285 285 285 285

GFSSE_925_thetae_015.txt.gz
Theta_e
326 331 339 340 338 339 336 336 333 333 335 336 335 336 338 337 337 333 335 336 338 338 339 338 337 337 337 339 337 337 331 326 329 333 337 339 342 341 339 340 339 342 340
324 329 337 341 340 339 339 338 333 331 331 334 338 338 337 337 337 336 337 338 338 337 336 334 335 334 334 335 333 332 331 326 325 333 334 337 340 340 335 335 335 338 338
323 328 334 338 340 339 338 335 332 330 330 333 336 335 334 335 335 335 336 337 336 335 334 332 330 329 329 332 332 327 328 328 326 326 333 333 337 339 338 333 332 331 330
323 321 328 333 336 337 338 336 333 331 336 336 337 337 334 333 333 333 333 335 334 333 331 328 325 324 324 325 324 324 325 326 327 326 326 331 333 335 338 336 332 329 327
326 323 326 331 333 334 336 336 334 335 337 336 336 334 333 333 332 331 331 332 332 330 326 324 321 318 317 317 318 320 322 325 325 325 326 326 329 335 337 337 336 332 330
327 327 329 330 332 335 334 334 333 336 335 335 333 332 332 331 330 329 327 328 327 324 322 318 313 311 311 307 306 305 307 310 313 317 323 324 326 332 335 335 335 334 332
328 328 330 330 332 334 336 335 334 335 335 332 331 329 330 330 328 325 322 323 321 319 314 312 314 311 304 301 300 300 300 300 301 305 311 318 325 329 330 331 333 334 334
329 330 330 330 331 333 336 335 335 336 334 331 330 329 329 328 324 321 319 318 315 311 310 308 304 301 300 300 299 299 299 300 301 302 305 313 320 324 325 327 329 331 331
328 329 330 329 329 332 334 335 334 334 333 331 329 328 328 323 321 318 316 316 316 316 312 306 302 300 299 299 299 298 298 299 299 300 303 308 316 320 321 322 325 326 327
326 327 327 326 327 330 332 333 333 332 331 329 329 327 324 319 317 315 315 316 316 315 308 302 299 299 299 298 298 298 298 298 297 298 299 302 309 314 317 318 319 321 322
325 325 325 325 325 327 327 329 331 331 327 326 327 325 320 315 314 311 312 314 315 311 304 299 299 299 299 298 298 298 297 297 297 296 297 297 306 312 314 314 316 317 318
323 324 324 324 323 325 325 326 328 327 325 327 324 321 316 312 309 306 311 312 312 307 301 299 299 299 299 298 297 297 296 296 295 295 295 295 299 308 312 313 314 315 316
319 321 322 323 322 323 324 324 327 327 326 326 321 316 313 309 304 304 309 309 307 303 299 298 298 298 297 297 296 296 296 295 294 294 295 295 300 309 311 312 314 314 314
316 318 320 322 322 322 322 322 323 325 325 323 318 313 310 306 301 301 305 305 303 300 298 297 297 297 296 295 295 295 294 294 294 294 294 295 298 307 311 312 312 313 313
315 316 317 319 320 321 321 321 321 321 322 321 317 313 309 303 299 300 302 302 299 297 296 296 296 296 295 295 294 294 293 293 293 293 294 295 301 308 310 310 311 313 313
311 313 315 316 318 319 319 319 319 319 318 318 316 312 308 304 299 299 300 299 296 296 296 296 295 295 294 294 293 293 293 292 292 293 295 296 299 306 307 308 309 311 312
310 310 311 313 315 317 318 318 318 317 316 315 314 311 307 303 300 298 298 297 296 296 295 295 294 294 294 294 294 294 293 292 292 293 295 296 298 305 305 307 308 309 308
308 309 308 309 311 314 316 317 317 317 316 314 312 310 307 304 300 298 297 297 296 295 294 294 294 294 293 294 294 293 293 292 292 292 293 294 297 298 298 301 300 300 302
309 309 308 307 307 310 313 314 315 315 315 314 312 310 307 304 300 298 297 297 296 295 294 294 294 293 293 293 292 292 292 291 292 291 292 293 294 293 293 293 292 293 293
309 309 307 307 305 306 309 310 311 311 312 312 312 310 308 303 299 299 298 297 295 295 294 293 293 292 293 292 292 291 291 292 291 291 291 291 292 292 292 292 291 290 290
308 307 306 305 304 304 306 306 305 306 307 308 310 309 307 303 299 299 298 297 295 295 294 293 292 292 292 291 291 290 290 289 289 290 290 290 289 289 288 288 288 288 289
307 307 305 304 302 302 304 304 304 303 302 303 305 305 306 303 299 298 298 297 295 294 293 292 292 291 291 291 291 291 292 291 289 290 289 288 288 287 287 287 287 288 288
304 305 305 303 302 301 302 302 301 301 301 299 300 301 302 302 299 298 298 297 295 294 293 292 292 292 292 291 292 293 292 295 290 289 289 288 288 287 287 287 287 287 287
301 302 302 302 301 300 300 300 300 300 299 298 298 298 299 300 298 298 298 297 296 294 293 293 292 292 293 292 289 290 291 290 293 291 288 288 287 287 286 286 286 287 287
299 299 300 300 299 298 299 299 298 299 299 299 298 297 297 297 296 298 297 296 295 294 293 293 292 291 292 293 293 289 289 288 288 289 291 288 286 286 286 285 286 286 286
298 297 298 297 298 298 297 298 298 298 297 297 297 296 296 296 296 296 296 296 295 294 293 292 292 291 291 292 293 293 292 290 288 288 289 288 288 285 285 285 285 285 285

GFSSE_925_thetae_021.txt.gz
Theta_e
335 339 336 338 343 341 341 340 339 337 338 337 334 333 334 333 333 335 337 338 339 340 340 340 338 337 338 337 333 327 326 332 335 339 342 342 341 340 341 344 344 343 341
334 340 338 341 342 342 341 340 338 338 338 338 334 334 337 339 335 337 338 338 338 337 336 336 336 335 336 336 330 329 325 328 333 338 340 340 339 336 333 333 337 337 339
333 339 339 342 341 342 340 339 336 336 337 337 339 339 339 337 335 336 338 338 338 337 335 333 333 333 332 332 331 327 327 325 329 332 335 338 339 340 335 331 329 330 330
331 339 342 341 341 340 337 338 333 333 338 338 338 338 338 336 335 335 337 337 337 334 332 329 325 324 324 326 325 324 325 326 326 327 330 333 335 336 339 334 330 330 333
331 339 342 341 339 339 338 337 335 331 332 337 337 338 338 336 336 333 333 336 334 333 329 325 323 321 319 319 320 321 324 324 324 326 329 331 334 335 336 337 336 331 331
330 337 342 341 342 340 339 338 335 332 331 337 338 338 337 335 332 330 330 333 333 331 329 324 320 316 312 309 307 307 310 315 317 322 326 329 335 334 333 337 335 334 333
329 333 339 340 340 340 339 338 336 334 332 338 337 337 334 333 331 329 328 330 330 328 325 320 316 309 304 301 300 300 300 303 311 315 322 328 329 330 332 333 335 335 334
330 331 333 335 338 339 338 337 337 335 333 338 337 335 332 330 330 329 327 327 325 323 321 320 312 304 301 300 300 300 300 301 309 312 317 322 324 326 327 328 329 331 331
331 332 333 335 333 332 333 334 335 334 333 337 336 333 332 329 329 328 325 324 322 320 319 318 312 305 301 300 299 299 299 301 307 309 311 315 318 321 322 323 324 326 327
331 332 333 334 335 337 337 336 335 334 335 337 334 332 329 328 328 326 322 321 320 319 318 316 312 305 301 299 299 298 298 299 304 305 309 309 314 317 318 319 320 322 323
330 332 333 334 335 335 336 337 337 335 335 336 333 332 330 327 327 324 320 318 319 319 317 315 311 303 300 299 299 298 299 301 301 303 305 300 308 314 315 316 317 318 319
328 330 332 333 334 335 334 334 335 335 336 335 333 331 329 327 326 321 318 316 318 317 315 313 307 300 300 301 299 299 300 299 300 300 302 297 302 312 314 315 316 318 319
324 327 329 331 333 333 333 332 332 332 333 334 334 332 329 327 323 319 317 315 317 317 312 310 302 298 301 301 299 299 298 299 299 299 300 296 305 312 313 315 317 317 316
319 323 326 328 330 331 332 332 332 332 332 333 332 331 328 326 321 317 315 315 317 314 311 308 302 300 299 299 298 298 298 298 299 298 300 296 300 311 314 314 315 316 317
318 320 323 326 327 329 330 330 330 330 331 332 331 329 327 325 320 316 314 315 316 313 310 307 301 299 298 297 297 297 297 296 296 298 301 298 305 312 313 314 315 316 317
316 318 320 323 325 326 328 329 329 329 329 330 329 327 326 322 319 315 313 314 314 311 308 302 301 299 298 297 296 296 296 296 296 297 302 301 309 310 311 313 314 315 314
316 316 318 320 322 324 326 327 328 328 328 328 328 326 323 321 317 313 311 312 311 308 304 300 300 299 298 297 297 295 295 296 297 297 300 305 307 309 311 314 314 314 313
314 315 315 316 319 322 323 325 326 326 326 326 326 324 322 320 316 312 310 310 309 305 301 299 299 298 298 297 297 297 296 296 296 297 298 304 307 308 310 310 308 307 307
313 313 313 313 315 318 320 322 323 324 324 324 324 323 321 318 314 310 308 307 306 302 300 299 298 298 298 298 298 297 297 297 296 297 299 301 301 302 303 308 306 304 306
310 311 311 311 312 313 316 319 321 322 322 322 322 321 320 317 313 309 306 305 303 300 298 298 298 298 298 298 296 296 296 297 295 296 297 296 295 295 295 295 294 295 299
306 307 308 309 310 310 313 315 318 319 320 320 320 319 318 315 312 309 305 304 301 299 298 298 298 297 298 297 296 296 295 295 295 295 295 294 293 293 293 293 293 297 298
304 304 304 305 307 308 309 312 314 315 317 317 317 316 316 314 311 308 305 303 301 299 298 297 297 297 297 296 298 298 299 295 294 295 294 294 293 292 291 291 291 292 299
302 302 302 303 304 305 306 309 310 311 309 311 313 313 313 312 310 307 305 303 301 299 298 297 297 297 297 296 299 301 303 304 296 294 293 293 292 291 291 290 290 291 297
301 300 301 301 301 302 304 306 307 309 307 308 307 308 309 309 308 307 305 303 301 299 298 298 297 297 297 296 296 298 298 300 301 296 294 293 291 291 291 290 290 290 296
300 299 299 299 299 300 301 302 304 304 305 305 305 303 304 305 304 305 304 303 301 299 298 298 297 296 297 297 296 296 295 296 298 301 297 294 292 291 290 290 290 290 293
299 299 298 298 298 298 298 299 300 301 302 302 303 302 303 302 302 302 303 302 301 300 298 298 297 296 296 297 297 296 296 296 296 298 301 296 294 292 291 290 290 290 291

GFSSE_925_thetae_024.txt.gz
Theta_e
338 339 336 337 338 341 341 341 341 340 336 333 332 333 332 334 335 338 339 339 340 341 341 340 338 337 337 336 329 326 330 334 339 343 341 340 339 342 342 343 342 341 340
336 338 336 337 340 342 340 340 338 337 338 337 333 334 336 334 333 335 337 337 337 337 336 336 336 335 336 331 327 326 325 332 337 340 340 339 337 334 334 336 334 337 339
335 339 336 337 340 342 341 340 339 338 338 337 334 337 338 338 337 337 336 337 337 336 334 332 333 334 332 330 328 326 325 326 331 336 334 338 337 337 333 330 329 329 333
334 339 336 339 339 341 341 340 337 337 337 337 339 338 338 338 336 336 336 337 336 335 332 328 324 324 325 325 324 323 325 326 326 329 331 333 336 336 338 333 329 332 330
333 341 337 340 339 340 340 339 334 333 336 336 336 336 337 336 335 335 336 337 335 333 330 326 323 321 319 318 319 321 324 324 325 327 329 332 337 336 335 336 334 331 330
331 341 341 341 341 341 338 338 335 331 333 336 337 336 337 337 335 332 330 333 333 332 329 325 321 316 312 308 307 307 313 318 319 325 328 331 335 333 333 335 334 334 334
330 338 342 342 340 340 339 337 337 333 331 334 337 337 337 335 333 330 328 331 331 330 327 322 317 308 302 301 300 300 302 308 313 319 325 329 330 330 332 333 334 334 334
329 334 338 341 340 341 339 339 337 335 332 333 338 337 336 333 331 328 327 328 328 326 322 320 310 302 301 300 300 300 300 305 309 311 320 322 324 326 327 328 329 331 331
330 330 334 336 339 340 340 339 338 337 334 333 338 337 335 331 330 327 327 327 325 322 321 316 305 301 301 300 300 300 301 306 306 311 315 315 319 321 322 323 325 326 327
331 331 331 334 332 337 339 338 337 337 336 333 338 337 333 331 329 324 326 324 323 320 320 316 306 302 301 300 299 299 299 302 303 306 308 308 314 318 318 318 320 322 323
329 332 332 333 334 331 332 332 333 334 334 334 338 336 332 329 327 323 325 320 320 319 318 315 309 302 301 299 299 299 300 301 301 304 304 301 306 314 315 315 316 317 319
327 330 332 333 334 335 336 337 334 335 335 335 338 334 331 329 328 324 323 319 317 318 316 314 308 301 300 301 298 299 301 300 300 301 302 297 303 311 313 313 315 318 319
324 327 330 333 333 335 335 335 336 335 336 336 336 333 331 329 328 325 321 317 316 317 314 314 306 300 301 301 301 300 299 299 299 299 300 297 301 312 313 316 317 317 316
318 324 327 328 333 334 335 334 334 334 333 333 334 334 331 329 327 325 320 317 315 316 314 308 305 299 301 301 300 299 299 299 299 299 300 297 300 311 315 315 316 317 317
317 318 322 327 328 332 333 334 333 333 333 330 332 334 333 330 327 323 319 316 314 315 313 309 305 300 300 299 299 298 298 298 297 298 300 300 304 311 314 315 316 316 318
316 316 317 323 326 328 331 332 332 332 332 332 330 333 333 331 327 323 319 315 315 316 312 310 306 300 299 298 298 298 298 297 297 298 302 301 308 311 313 315 315 316 316
315 316 316 319 324 326 328 330 331 330 330 331 332 332 331 329 326 322 318 315 315 315 312 309 303 300 299 298 297 297 297 297 297 297 299 303 305 309 312 315 315 315 314
311 313 316 316 319 324 326 327 329 329 329 329 330 330 328 328 325 321 316 313 315 313 311 307 301 300 299 298 297 297 296 296 297 297 298 306 307 309 311 313 313 311 309
308 309 311 314 315 317 322 324 325 327 328 328 328 328 327 326 324 319 315 312 312 311 309 304 300 299 299 298 298 297 296 296 296 296 297 304 306 306 309 311 311 309 309
305 306 307 309 311 314 316 320 322 324 325 326 325 326 325 323 322 318 313 311 310 309 307 302 300 298 298 298 298 297 297 297 296 296 297 300 301 302 303 306 307 303 305
302 303 304 305 307 310 312 315 318 320 321 323 323 323 322 321 320 318 312 309 308 307 305 301 299 298 298 298 296 296 296 297 296 296 296 296 295 296 296 295 297 295 296
301 301 302 302 304 306 308 312 314 315 317 319 320 320 319 319 318 315 312 307 306 305 302 300 298 298 298 297 296 296 293 294 294 295 295 295 294 293 293 293 293 295 296
300 300 299 301 302 303 306 308 310 311 312 312 312 315 315 316 315 313 312 308 305 303 301 299 298 298 298 296 297 298 295 295 294 294 295 294 294 293 292 292 292 292 299
299 299 298 298 300 301 303 304 305 306 306 306 307 308 310 312 313 312 310 308 305 303 301 300 298 298 297 297 297 299 300 299 294 292 294 293 293 292 292 291 290 290 296
298 298 298 298 297 298 299 300 301 301 302 303 304 304 303 304 306 308 308 307 305 303 301 299 298 298 297 297 296 298 298 298 299 293 291 292 293 291 291 291 290 290 295
297 296 295 295 296 296 296 297 297 298 299 300 300 300 301 302 302 303 302 304 305 304 302 300 299 298 297 297 297 296 298 297 295 295 293 291 291 291 291 291 290 290 292

GFSSE_925_thetae_027.txt.gz
Theta_e
338 337 336 338 341 342 342 342 341 339 338 335 333 334 332 335 337 339 341 342 341 341 340 340 338 337 337 330 326 329 334 339 343 341 338 338 341 341 341 340 340 340 341
337 338 336 337 339 341 342 341 341 339 335 333 332 331 330 332 337 338 338 337 338 338 338 336 335 332 333 327 326 325 331 339 341 339 338 336 336 335 335 333 335 339 340
336 337 335 337 337 339 340 340 339 337 337 336 333 333 334 333 332 336 335 335 335 334 333 331 330 328 326 329 326 326 325 332 337 334 332 336 335 335 331 329 330 332 338
335 336 335 337 337 339 339 338 337 337 338 338 335 337 337 337 336 335 336 335 335 334 331 326 323 323 323 324 323 324 325 325 329 329 332 335 335 336 335 332 330 331 330
335 335 335 337 338 341 341 339 338 338 338 336 339 338 337 336 335 334 335 335 334 333 330 326 323 321 318 317 319 322 323 324 326 328 330 334 335 335 335 334 332 330 328
334 337 335 337 340 341 341 339 336 334 334 335 336 336 336 337 334 333 333 334 333 332 329 326 322 317 313 310 308 311 317 322 324 326 328 333 335 333 332 333 332 333 333
333 339 339 336 340 340 339 337 334 331 332 335 336 336 337 337 335 332 331 331 331 330 329 325 320 313 304 301 300 301 310 315 317 324 327 330 331 331 331 332 333 333 332
330 338 341 339 339 341 340 337 336 333 331 334 336 336 336 336 334 331 327 330 330 328 325 322 316 304 301 300 300 300 302 306 309 317 322 325 325 326 328 329 330 331 331
329 331 338 340 341 339 340 339 337 336 333 331 333 336 337 335 332 330 326 327 328 326 323 318 307 301 301 300 300 301 304 307 308 311 313 313 317 321 322 324 325 327 327
330 329 331 336 340 340 339 339 338 338 335 333 334 337 336 335 331 329 326 326 326 323 322 316 305 301 301 300 300 300 303 305 306 309 311 310 314 319 318 317 321 322 323
329 330 329 330 333 334 339 339 338 338 337 335 333 337 337 333 330 329 326 323 324 321 321 315 305 301 301 300 299 299 300 301 303 304 304 305 308 315 316 315 315 318 319
325 329 331 331 331 332 333 339 338 337 335 335 335 337 335 333 330 328 325 322 320 318 318 316 307 301 300 299 299 300 301 300 301 301 302 298 301 311 314 312 316 318 320
319 322 327 331 332 333 333 331 331 332 333 333 334 334 333 332 329 328 326 322 317 317 316 314 308 302 301 302 300 300 300 300 300 300 300 298 301 312 313 316 318 318 316
317 319 323 327 331 332 334 334 334 334 333 334 335 333 332 330 330 328 327 322 316 316 315 312 307 301 301 301 301 300 299 300 300 300 300 298 300 308 315 315 316 317 317
316 317 318 324 328 330 333 335 335 335 335 334 332 332 332 330 329 326 326 322 318 314 314 312 307 302 300 301 300 300 299 299 299 299 299 299 300 308 314 316 316 317 317
312 315 317 320 325 328 331 333 334 334 333 333 332 330 331 331 330 327 325 323 319 315 313 312 307 304 300 300 299 299 298 298 298 298 300 300 305 309 314 315 317 318 318
309 311 314 316 321 327 329 331 333 333 332 332 332 331 329 330 331 329 326 323 320 315 314 312 309 306 301 299 298 298 298 298 298 298 300 301 305 310 313 314 314 317 316
307 308 311 315 320 326 327 328 330 332 331 331 331 331 330 330 330 330 327 324 320 315 315 313 310 307 301 299 298 297 297 297 297 297 299 304 305 308 310 315 315 314 312
304 305 308 310 315 324 326 327 327 328 330 329 329 329 329 329 328 328 327 323 317 315 315 313 310 307 300 299 298 297 297 297 297 297 298 303 306 306 310 313 313 312 311
302 303 305 307 311 316 320 324 324 325 326 328 327 327 326 327 327 326 324 321 316 314 314 312 310 303 300 299 298 297 296 297 297 296 297 301 305 305 306 310 311 310 309
300 301 302 304 306 309 312 314 317 320 323 324 324 323 324 324 325 325 321 319 315 313 313 311 307 302 299 298 297 296 296 297 297 296 296 297 300 302 301 303 308 307 305
298 298 300 302 303 306 308 310 312 314 314 319 321 321 320 320 321 321 321 316 313 311 310 309 306 301 299 298 297 295 293 295 296 296 296 296 297 296 296 297 296 299 297
297 297 297 298 300 302 304 307 309 309 309 308 310 314 317 317 317 318 318 316 311 308 308 307 305 301 298 298 297 297 292 293 292 294 295 295 295 295 294 294 294 294 295
295 296 297 297 297 298 300 301 301 300 301 301 303 305 308 311 312 313 313 314 312 307 306 305 304 301 298 298 296 297 298 297 292 293 294 295 295 294 294 293 293 293 294
294 294 294 295 296 296 296 297 297 298 298 298 300 301 301 302 304 305 308 309 308 307 305 304 302 300 298 298 297 297 297 298 297 292 291 292 294 294 294 293 292 292 292
294 293 293 293 293 294 294 295 295 295 295 296 296 296 297 298 299 301 302 301 301 305 305 304 301 300 299 298 297 297 297 297 296 295 291 289 291 293 293 293 292 291 291

GFSSE_925_thetae_030.txt.gz
Theta_e
337 336 338 340 342 342 343 341 340 339 337 336 334 333 333 337 340 342 342 341 340 340 339 338 337 336 332 326 329 333 336 341 342 338 337 339 341 341 339 339 340 341 341
333 337 337 339 342 342 343 341 340 339 337 335 334 332 333 334 338 339 338 338 338 339 340 339 335 332 326 326 325 332 340 340 338 337 336 335 336 337 334 333 338 340 342
335 337 336 338 341 342 342 341 340 338 336 334 333 331 331 334 337 336 336 335 334 335 333 331 328 324 327 325 325 325 335 338 339 334 335 336 334 333 330 329 329 336 338
335 337 336 337 339 341 341 340 339 338 336 335 333 332 331 332 333 336 335 335 334 333 331 327 322 323 324 324 322 325 325 332 328 332 336 337 334 335 333 330 333 329 331
335 335 335 337 337 339 340 339 337 336 337 337 334 336 337 337 336 334 335 335 334 332 330 325 322 321 319 319 321 323 324 325 328 329 334 335 335 337 334 332 331 329 328
335 335 335 336 337 338 339 338 337 336 338 336 338 338 337 336 335 333 334 334 332 332 330 327 323 319 315 312 313 317 322 323 325 327 330 334 334 336 332 332 331 332 332
335 335 335 335 337 342 341 340 337 337 337 335 337 336 337 335 333 333 332 333 332 331 330 327 323 316 308 302 302 308 317 319 322 325 327 332 333 331 331 331 332 331 331
332 335 336 335 337 342 341 341 338 334 333 333 336 336 336 336 335 333 331 329 331 329 328 325 320 311 301 300 300 305 310 313 316 320 324 327 328 328 327 329 330 331 331
330 334 338 338 336 339 340 339 337 334 331 333 335 336 336 336 335 333 330 327 329 328 325 323 316 303 301 300 300 301 304 306 307 312 316 318 320 322 324 325 326 327 328
328 330 334 339 339 338 339 340 338 336 334 331 331 334 336 336 335 332 330 327 325 326 324 320 309 301 300 300 300 302 305 306 307 309 311 311 313 318 318 320 321 323 324
329 329 330 332 338 340 339 339 338 337 336 335 332 332 338 337 335 332 330 328 321 322 322 319 309 301 301 299 299 300 302 302 303 304 305 305 309 312 313 311 313 316 318
325 328 329 330 331 335 338 339 337 337 336 335 335 334 336 335 335 332 330 327 322 320 319 317 310 303 301 299 299 300 301 301 302 302 302 302 301 310 313 309 312 316 319
318 322 326 328 329 330 331 333 338 337 337 336 335 334 334 333 332 330 329 326 322 319 318 316 312 303 300 299 299 300 301 301 301 301 301 299 300 309 313 314 318 319 319
314 318 321 326 328 329 330 331 331 337 338 337 335 334 333 332 331 330 328 327 324 318 316 315 311 306 301 302 301 301 301 300 300 300 300 299 300 307 315 318 317 316 317
310 312 314 322 327 328 330 331 332 332 332 331 332 333 333 330 331 329 327 326 325 319 316 314 311 307 300 301 301 301 300 300 300 300 300 300 300 306 316 316 317 318 318
307 309 312 314 322 328 330 330 332 333 333 333 333 332 332 331 330 329 327 325 325 321 317 314 312 308 302 300 301 300 299 299 299 299 300 300 301 305 314 316 317 318 320
305 306 310 313 318 326 329 330 332 333 334 334 334 333 333 330 329 330 329 326 325 323 318 315 314 311 305 300 300 299 299 298 298 299 299 301 302 306 311 316 318 318 318
304 306 308 312 316 322 328 330 331 333 333 333 333 333 333 331 329 327 329 328 326 323 320 316 314 311 306 301 299 298 298 298 298 298 299 300 301 305 309 312 315 316 317
302 304 307 311 315 322 325 328 330 331 331 331 331 329 329 329 329 328 328 329 327 323 320 316 314 312 308 304 299 298 297 297 297 297 298 300 302 304 307 311 315 316 314
300 302 304 307 311 317 322 324 325 326 328 328 328 326 326 327 329 329 329 328 325 322 318 316 314 312 309 306 299 298 297 296 296 297 297 298 302 305 306 310 314 313 313
298 299 301 304 306 310 312 313 315 317 320 322 322 322 323 325 326 326 326 326 324 320 318 316 313 309 308 303 298 297 296 296 296 296 296 297 300 303 304 306 310 311 311
296 297 298 299 302 305 307 308 309 308 306 309 312 314 317 320 322 323 322 322 320 318 315 313 311 308 304 301 297 294 293 295 296 297 296 296 297 300 301 302 303 307 309
294 295 295 296 297 300 303 306 307 306 307 306 305 306 307 310 313 315 316 315 314 313 312 312 310 307 304 301 298 297 291 292 292 295 296 296 296 297 298 298 298 298 301
293 294 294 294 295 296 297 298 298 297 296 296 298 300 302 303 303 304 306 307 309 307 306 307 308 305 302 301 298 297 296 296 292 292 294 295 295 296 296 295 295 295 295
291 292 293 293 293 294 295 295 295 294 294 294 296 297 298 299 299 300 301 301 301 301 303 304 303 303 302 299 299 298 296 295 296 292 292 292 294 295 295 295 295 294 294
291 290 291 291 290 290 290 289 290 289 289 289 290 291 292 294 295 296 297 298 299 299 299 299 301 302 300 299 298 297 297 296 295 294 290 291 291 296 296 295 295 294 294

GFSSE_925_thetae_033.txt.gz
Theta_e
337 336 340 342 342 342 339 338 337 337 336 336 334 334 337 339 341 343 342 340 339 338 337 337 336 330 327 327 332 336 339 341 338 337 338 340 340 339 339 340 340 342 341
335 336 340 342 342 342 342 340 339 337 337 335 334 333 335 339 341 341 340 339 338 338 338 337 334 325 324 325 330 337 338 338 336 335 335 335 335 334 333 336 339 341 342
334 335 338 341 343 343 343 341 339 338 337 335 333 332 333 338 337 337 336 334 334 336 335 338 333 326 325 324 324 334 338 337 336 335 335 334 334 332 330 329 334 338 339
332 336 336 339 342 342 343 341 340 338 336 335 333 330 330 334 335 336 335 334 334 332 331 331 323 324 325 324 325 325 332 335 330 333 334 335 335 334 332 332 328 328 330
333 335 335 337 341 342 342 341 340 338 336 336 334 332 331 332 333 336 334 335 334 332 330 326 322 321 320 321 322 324 324 328 328 333 335 336 335 336 333 330 330 330 328
333 334 335 336 338 342 341 341 339 337 336 337 334 334 337 336 336 334 333 334 332 330 331 328 324 320 316 314 315 322 322 324 327 330 335 334 334 335 333 331 331 331 331
333 335 334 335 337 339 339 339 338 336 337 337 334 338 336 335 334 333 332 333 330 329 330 328 325 319 313 305 305 312 320 321 324 326 330 333 332 331 331 329 330 330 330
331 335 335 335 336 337 337 338 338 336 337 337 335 337 336 335 334 333 332 331 329 329 328 327 324 317 304 300 300 307 313 317 319 322 325 327 329 329 328 326 328 330 330
333 334 334 335 336 338 341 342 341 338 336 335 334 336 337 337 335 334 332 329 327 328 328 326 322 312 301 300 300 303 307 309 310 313 316 319 322 321 321 323 326 327 327
328 331 333 336 336 337 340 341 340 338 335 332 333 336 336 336 335 334 332 329 326 324 326 324 318 305 301 300 301 303 305 306 306 308 310 311 313 315 317 320 321 322 323
327 328 331 335 337 337 338 339 340 338 336 333 333 334 335 337 336 335 333 330 327 323 323 323 316 303 301 299 300 302 304 304 304 306 307 306 309 311 311 311 314 317 319
323 327 328 332 334 337 338 339 340 337 336 335 334 333 331 334 333 335 333 330 328 324 321 321 316 306 301 299 299 300 301 301 302 303 303 303 304 306 310 309 311 314 317
312 316 324 328 333 334 336 339 339 338 335 335 335 334 332 333 332 333 331 329 327 324 320 319 317 310 303 299 299 300 300 301 301 301 301 301 300 304 312 311 314 319 319
307 309 312 320 327 332 334 334 336 338 336 334 334 334 333 332 331 332 330 328 327 325 321 318 315 311 305 299 299 300 300 301 301 301 301 301 300 302 314 317 319 318 316
306 307 309 311 318 327 330 332 332 332 338 337 335 334 335 333 330 330 329 328 327 325 322 318 316 312 308 302 301 301 300 300 300 300 300 301 299 302 315 318 317 318 318
304 306 308 310 312 321 328 329 331 332 332 335 334 332 335 335 333 328 328 328 327 325 324 320 316 314 311 304 300 300 300 300 299 300 300 300 301 302 312 316 318 318 319
302 305 309 312 313 317 324 329 331 331 332 332 333 333 333 332 333 328 329 329 327 326 325 321 317 315 313 309 302 300 300 299 299 299 299 300 301 303 308 315 317 319 320
302 304 308 312 318 321 325 328 330 331 332 333 332 331 331 331 332 330 328 328 328 327 326 322 319 316 314 311 307 301 299 298 298 298 298 299 301 302 305 310 316 318 319
301 304 307 311 316 321 324 326 328 329 329 329 330 330 329 330 330 329 329 328 327 327 324 322 319 316 314 311 307 302 299 298 298 298 298 298 300 301 304 307 309 312 316
299 301 304 308 312 315 317 320 320 322 321 321 321 323 325 326 327 327 328 327 327 325 322 320 318 316 313 311 307 303 300 298 297 297 297 297 298 300 303 305 308 312 315
298 300 302 304 307 311 313 313 311 310 310 312 314 316 320 321 322 322 321 320 321 321 319 318 316 314 312 308 303 302 301 299 298 297 297 297 297 298 301 304 307 311 313
294 295 297 299 303 305 306 304 304 304 302 302 303 305 309 311 313 315 316 315 314 313 313 312 313 310 308 307 301 295 294 297 298 298 297 297 297 297 299 302 304 306 310
293 295 296 297 298 300 302 304 304 304 303 301 300 299 300 301 302 304 305 307 310 310 308 308 307 306 304 304 301 299 295 293 291 295 296 296 296 296 297 299 301 302 303
292 292 293 294 296 297 298 298 297 295 293 293 294 295 297 298 298 299 300 300 300 300 302 305 305 303 302 301 300 298 297 295 294 294 296 296 296 296 296 296 297 298 298
291 291 291 291 291 291 292 293 291 289 288 288 289 290 290 291 292 293 295 297 298 297 297 298 300 303 302 299 298 297 297 296 294 292 295 293 296 297 296 296 296 296 296
289 289 289 288 288 288 288 288 287 287 286 286 286 286 286 285 285 285 286 288 291 293 294 294 295 297 298 300 300 297 296 295 295 293 292 294 293 295 296 297 297 297 296

GFSSE_925_thetae_036.txt.gz
Theta_e
335 338 342 341 341 342 342 338 336 335 335 334 335 340 340 340 341 341 341 339 337 337 337 337 332 327 326 331 335 337 339 339 338 338 339 338 338 338 339 341 341 341 340
332 337 342 343 342 343 340 337 336 336 335 335 334 334 339 340 341 340 339 338 336 336 336 335 334 325 325 329 335 337 337 336 335 334 334 333 332 332 334 339 340 341 341
333 335 339 342 343 343 342 340 338 336 336 335 333 332 335 338 338 338 336 334 332 334 335 334 327 326 324 323 331 336 337 336 335 334 333 333 334 333 329 329 335 337 340
334 335 337 340 342 342 342 341 339 338 337 335 333 332 334 336 337 335 334 333 333 334 334 331 322 323 324 323 324 329 333 333 330 333 334 334 335 336 336 329 327 327 330
332 334 336 338 342 342 342 342 340 338 336 335 333 331 330 331 333 335 335 333 333 332 331 328 322 320 319 320 322 324 325 328 329 334 334 335 335 335 333 330 330 330 328
332 334 335 337 340 341 341 341 340 339 336 335 334 332 332 335 335 335 334 333 332 329 330 328 325 321 316 313 315 321 322 324 327 332 334 334 334 335 333 331 330 330 329
330 334 335 336 338 341 341 341 340 339 336 336 335 333 336 336 335 334 332 332 331 328 327 328 326 322 315 306 305 312 319 322 324 326 331 332 332 331 331 329 329 329 329
329 333 334 335 337 340 341 341 340 338 336 338 335 337 337 335 334 332 331 331 330 327 327 327 325 320 310 301 300 305 313 317 321 323 324 327 328 328 327 327 326 328 329
330 333 335 335 335 337 340 340 339 338 336 337 335 336 337 335 335 333 332 331 328 326 325 326 324 317 304 300 300 304 308 311 313 314 316 319 320 320 319 319 323 325 327
328 333 334 334 335 337 339 340 339 339 338 336 335 334 336 336 336 334 333 331 328 326 323 324 322 314 302 300 301 303 304 305 306 307 309 310 312 314 312 316 319 321 321
325 327 332 335 336 336 337 339 338 338 338 337 334 333 335 336 336 335 334 332 329 327 323 322 320 313 302 300 300 302 304 304 305 306 307 307 308 310 312 311 313 316 317
309 313 323 330 335 337 342 340 339 339 338 335 333 332 332 334 333 332 333 332 329 327 324 322 320 313 303 300 299 300 301 301 302 303 303 303 304 305 313 310 311 314 316
305 307 311 318 327 335 340 337 336 339 336 334 334 333 333 333 332 331 332 330 328 327 325 321 319 315 308 302 299 299 300 300 301 301 301 301 301 301 313 314 314 318 319
304 306 308 309 316 327 336 340 337 335 339 336 332 333 334 334 332 332 331 331 329 327 325 323 320 317 312 305 299 299 300 300 300 300 301 301 300 301 306 316 318 319 318
303 305 308 310 310 313 327 337 338 335 334 334 333 331 331 331 331 330 330 330 329 327 326 324 322 318 315 310 304 301 301 300 300 300 300 300 301 300 302 318 318 318 318
304 307 309 313 313 311 319 329 336 336 336 332 331 331 332 332 332 331 328 327 325 328 326 325 324 320 316 313 309 302 300 300 300 299 299 300 300 301 303 317 317 319 319
302 306 310 316 319 318 320 326 329 332 331 331 331 332 331 332 330 330 330 328 327 328 327 325 324 322 321 316 313 309 302 300 300 299 299 299 300 301 304 309 318 318 319
302 306 311 318 322 323 325 327 328 329 328 327 327 328 328 328 329 331 330 329 328 328 328 325 324 321 319 318 315 312 307 302 299 298 298 298 299 300 302 305 311 316 319
301 305 309 315 320 322 324 323 323 323 323 322 323 324 324 325 325 324 324 324 324 324 325 324 321 319 317 316 315 312 308 305 302 299 298 297 298 299 300 302 306 310 317
300 303 306 309 312 314 316 317 317 317 316 316 317 319 320 320 321 320 319 319 319 318 316 315 316 316 313 312 311 310 310 309 306 305 303 299 297 297 298 301 303 307 309
300 303 305 308 308 311 311 310 308 304 304 306 307 309 311 313 315 316 315 314 312 313 312 312 312 311 311 309 305 307 308 308 308 306 302 300 298 297 297 298 301 304 309
295 297 300 302 306 308 308 306 304 302 300 301 301 302 303 304 305 305 306 308 309 309 308 307 307 307 306 307 303 299 298 302 300 298 297 298 298 297 296 296 298 301 304
294 295 297 298 300 303 303 304 303 301 299 298 297 297 297 298 299 300 301 300 300 301 301 303 304 302 302 303 302 301 299 297 293 303 303 299 297 297 297 297 297 297 299
290 292 294 296 297 298 299 299 298 294 289 288 288 289 290 291 291 293 294 295 296 296 296 296 298 300 300 299 299 299 298 295 295 296 298 300 299 298 297 297 296 296 296
289 289 289 290 291 291 292 292 290 287 286 286 286 286 286 286 286 286 286 287 288 288 290 292 294 295 296 297 297 296 296 295 295 293 295 295 296 299 299 297 297 297 297
288 288 288 288 287 288 288 288 287 287 286 286 285 285 285 285 285 285 285 285 285 285 285 285 286 288 290 293 294 295 295 294 295 294 293 296 295 296 298 298 298 298 297

GFSSE_925_thetae_042.txt.gz
Theta_e
338 343 342 341 342 340 338 336 335 334 335 337 337 337 339 340 340 338 337 335 335 336 335 334 333 331 337 337 337 336 337 337 337 336 335 336 340 341 341 342 343 342 334
337 342 342 342 342 341 340 336 335 335 335 338 340 339 339 340 340 338 336 332 332 335 334 333 329 324 329 333 333 334 335 334 333 332 333 335 332 335 335 337 339 340 341
337 342 343 342 342 343 340 337 336 336 336 335 337 338 339 339 337 336 332 330 331 335 332 328 324 324 324 327 333 335 334 332 332 332 335 335 336 335 330 327 327 336 338
337 342 345 341 342 341 340 337 336 336 336 335 335 338 338 338 337 333 333 330 330 331 330 324 321 320 320 322 324 329 330 330 332 334 335 335 335 335 334 329 328 326 331
337 342 345 340 341 342 341 339 338 337 337 335 333 336 336 336 333 334 332 330 329 327 329 326 323 320 316 315 320 323 326 330 333 335 335 335 334 334 332 330 331 328 327
337 341 343 342 343 343 342 341 340 338 337 335 334 332 331 331 335 334 332 330 329 327 324 326 324 322 316 309 311 318 322 326 331 333 333 333 333 334 334 332 331 328 328
337 340 342 340 342 341 342 342 341 339 337 335 335 332 333 335 335 333 331 331 330 328 324 322 322 321 313 303 302 311 318 323 329 330 331 332 331 331 331 330 329 330 327
337 339 340 338 340 341 340 339 340 339 338 336 336 333 335 336 335 333 331 331 330 327 324 320 321 316 307 300 302 306 312 317 322 324 325 326 324 325 325 325 327 327 327
335 338 339 340 339 340 340 340 339 339 338 336 336 334 337 336 334 333 332 331 329 327 326 322 319 315 304 300 301 304 307 309 316 316 316 319 317 320 321 318 319 322 324
327 328 334 338 337 338 342 340 341 340 339 337 336 336 334 337 335 335 333 331 330 328 327 324 321 315 306 300 301 303 305 306 310 311 313 313 312 318 318 315 314 318 320
311 317 325 333 335 339 338 341 339 338 336 336 337 335 334 337 335 335 334 333 330 329 328 326 324 320 312 303 299 301 302 304 305 306 307 305 306 313 317 317 314 313 316
308 308 310 318 328 335 334 336 336 336 335 337 338 336 336 335 334 332 332 330 331 328 327 325 324 324 321 311 301 299 300 300 302 303 304 302 302 308 317 317 316 317 319
305 307 307 309 313 326 332 334 334 335 335 338 336 334 332 332 333 332 331 330 329 329 327 326 325 324 322 319 309 301 299 300 301 301 301 301 301 301 312 319 318 318 320
305 306 307 310 310 312 328 333 333 333 333 333 332 332 333 332 331 332 332 332 330 330 328 326 324 324 322 321 316 310 304 301 301 301 301 300 300 301 302 316 321 320 320
305 306 309 314 315 311 321 331 332 333 331 332 332 333 331 330 330 332 331 331 330 329 327 326 326 324 323 320 319 317 313 307 302 300 300 300 300 300 301 303 318 322 320
304 306 310 317 316 312 322 329 332 332 331 330 329 329 330 330 330 330 330 330 330 328 327 326 325 324 322 319 315 316 315 315 314 308 302 300 299 299 300 301 306 320 322
304 307 314 318 320 322 325 329 330 330 328 327 327 328 328 328 328 328 327 326 325 325 324 324 323 322 320 319 317 316 314 315 314 311 309 305 301 299 298 299 302 307 318
304 312 315 318 320 322 325 327 327 327 326 326 326 325 325 325 325 325 324 323 323 323 322 322 321 320 318 319 318 317 316 314 313 314 314 313 311 307 301 298 299 302 308
302 309 313 315 317 320 322 323 323 321 319 316 318 319 320 320 320 320 319 319 318 318 319 318 318 317 316 316 316 315 316 314 312 311 311 312 311 310 306 302 298 298 301
302 304 311 313 313 315 315 314 311 308 305 304 305 307 310 313 312 312 312 313 313 314 314 313 312 312 311 310 311 312 312 312 312 310 306 303 302 303 300 299 299 298 297
300 302 305 307 306 307 307 306 303 300 297 296 298 300 301 300 302 303 304 303 304 304 304 304 307 307 306 304 307 310 309 308 306 304 303 302 303 300 302 303 301 298 298
297 299 300 301 302 302 303 301 299 295 293 292 294 297 298 299 300 299 298 297 298 299 299 300 301 305 305 302 304 307 311 310 303 304 304 301 300 301 301 300 298 298 297
295 296 299 301 302 300 301 300 297 294 292 291 290 290 291 292 292 292 292 291 292 292 293 294 296 298 301 300 300 302 307 309 303 304 303 301 301 300 300 301 300 300 301
292 292 294 298 301 301 300 297 295 294 291 289 288 287 287 287 287 287 287 287 287 287 287 287 288 290 293 294 298 297 299 298 301 303 301 301 299 299 299 299 299 299 299
290 291 291 292 294 294 294 293 292 290 288 288 287 287 286 286 286 286 286 286 286 286 285 285 286 286 288 288 289 290 292 295 297 296 298 296 294 294 296 296 295 297 297
289 289 289 290 291 291 291 290 290 289 288 288 287 287 286 285 285 285 285 285 285 285 284 284 284 284 285 286 286 287 288 289 289 289 290 290 291 291 290 292 293 295 296

GFSSE_925_thetae_045.txt.gz
Theta_e
341 345 340 341 342 339 337 335 334 334 333 334 334 338 340 339 338 336 335 335 337 336 335 334 334 336 336 336 335 335 335 335 334 333 333 333 338 339 340 341 341 341 337
340 345 341 341 342 339 337 335 335 336 339 340 340 339 341 340 338 335 331 332 335 335 333 333 329 325 331 332 333 335 333 333 331 332 337 336 332 332 329 332 339 340 340
340 345 343 342 342 339 338 336 336 335 335 337 338 339 340 339 336 332 330 331 334 333 332 329 323 322 323 327 332 333 331 330 331 334 335 335 336 336 332 327 326 337 338
339 344 345 342 342 342 338 336 336 336 335 336 339 338 338 338 335 333 330 330 333 332 331 329 321 318 318 322 323 327 329 330 332 334 333 334 334 333 334 331 328 326 333
339 343 346 342 342 341 340 337 337 338 336 335 337 337 337 336 333 333 330 329 329 331 329 328 323 319 314 313 320 323 327 330 332 333 332 333 334 334 334 330 330 327 326
338 342 345 342 341 342 342 339 338 338 337 335 334 336 335 333 334 333 330 329 329 328 327 326 322 318 310 305 310 318 322 327 331 331 331 331 330 332 333 332 331 328 325
337 341 344 340 342 343 341 340 339 338 337 336 334 332 332 336 334 333 331 330 329 326 322 318 318 314 304 301 304 312 319 323 327 328 329 330 329 330 331 331 330 330 326
338 341 342 341 342 342 341 340 340 339 337 336 336 333 335 336 334 333 331 330 329 327 325 319 314 312 302 300 303 307 312 317 321 322 323 324 321 324 325 325 326 328 327
337 339 339 340 340 341 341 340 339 339 338 336 335 334 335 335 334 333 331 331 329 328 327 325 320 311 303 300 302 303 305 308 314 315 315 319 315 321 320 320 322 325 324
321 327 334 337 339 340 342 339 340 340 339 338 336 336 334 336 335 334 332 331 330 329 328 327 325 320 306 301 300 302 304 308 309 311 312 309 309 318 319 319 318 319 322
314 314 317 323 333 337 338 341 339 338 338 336 336 336 335 337 335 335 333 332 330 328 327 325 324 324 322 308 300 300 302 303 306 307 308 303 303 313 319 318 317 318 319
311 311 311 313 317 330 335 337 340 340 336 337 338 337 337 336 336 334 332 330 329 328 327 325 324 324 320 312 305 303 302 301 304 304 303 301 301 302 314 320 319 318 320
310 311 310 311 312 316 331 334 335 334 333 337 337 337 335 334 334 332 332 331 329 328 327 326 324 324 323 319 314 308 304 303 304 304 304 300 301 301 308 317 321 320 321
310 310 311 313 315 314 323 332 333 334 336 337 336 335 335 334 331 332 332 332 330 329 328 326 324 323 321 319 317 312 313 308 304 302 303 301 300 300 301 310 318 323 321
309 311 313 316 318 317 321 332 332 333 334 332 332 332 332 331 331 332 332 331 329 328 327 326 324 324 322 319 317 316 312 313 313 307 305 303 300 300 300 301 309 321 323
309 312 312 315 320 315 326 332 333 333 330 329 328 328 329 330 330 330 329 329 328 327 327 326 325 323 322 322 321 321 319 316 314 313 312 310 307 302 300 299 300 304 317
310 311 315 316 319 325 328 330 330 329 327 327 325 324 325 325 325 326 325 326 325 325 325 324 324 323 321 321 319 319 319 318 316 313 310 310 310 311 310 303 299 300 303
309 311 313 316 319 322 325 325 324 323 322 321 321 322 322 323 323 321 320 319 320 321 321 321 322 320 320 318 318 318 319 318 314 314 311 307 307 307 306 307 305 299 299
307 310 312 315 318 320 320 320 319 317 315 312 312 311 311 313 314 315 315 315 316 316 315 314 313 313 313 312 313 314 315 315 314 313 310 308 306 305 303 302 302 301 299
306 309 311 312 315 316 316 316 315 314 311 306 304 304 305 307 307 309 309 308 308 308 307 309 310 310 308 307 307 310 311 311 310 308 306 302 302 301 301 302 303 301 299
305 305 307 309 309 310 309 308 305 302 300 298 297 298 301 301 302 302 301 302 303 302 302 303 306 308 306 303 308 308 310 309 304 304 305 304 302 302 302 300 300 299 299
306 305 306 307 308 309 307 304 301 298 296 295 294 296 296 298 297 297 296 296 297 296 296 297 299 303 302 302 302 306 311 309 305 305 304 303 303 301 301 302 302 301 301
303 303 304 304 304 303 302 299 297 296 295 294 292 292 291 291 291 291 291 291 290 290 289 290 291 294 296 298 297 302 304 306 301 304 303 302 301 299 297 297 299 299 299
299 299 300 300 301 301 301 299 299 297 294 292 290 289 289 289 289 289 289 289 288 288 288 288 288 289 290 291 292 293 296 297 300 299 297 295 292 292 291 296 292 292 296
296 296 296 296 295 296 296 296 294 292 291 290 289 288 288 287 288 287 287 287 287 286 286 286 286 287 288 288 289 289 290 290 294 290 292 291 290 290 292 290 290 294 292
293 294 293 293 293 293 293 293 292 291 291 290 290 289 288 287 286 286 286 285 285 285 285 285 285 285 285 286 286 287 288 288 288 288 289 289 289 289 289 288 292 290 292

GFSSE_925_thetae_048.txt.gz
Theta_e
344 340 340 341 340 337 335 333 332 332 332 332 338 340 338 337 336 332 334 336 335 335 334 334 334 335 335 332 334 334 332 330 331 336 335 331 334 334 337 339 340 338 338
346 340 341 341 340 337 335 334 336 338 339 340 340 340 340 338 333 334 334 334 334 333 332 330 328 326 330 333 334 333 331 328 334 335 337 333 329 334 328 330 338 339 339
345 342 341 341 341 338 335 335 335 336 338 338 338 340 339 336 333 331 332 333 333 332 331 327 320 320 323 327 329 329 328 330 334 334 335 333 331 332 334 328 327 335 337
344 344 343 342 341 338 336 336 335 335 335 338 339 338 339 335 333 329 331 332 332 330 330 327 320 315 316 321 323 327 329 331 333 333 332 335 336 334 333 332 328 325 329
342 345 343 343 341 340 337 336 337 336 335 337 337 337 338 333 333 329 328 328 327 328 328 323 320 315 310 313 319 322 327 331 331 331 330 332 332 334 334 332 327 325 326
342 344 344 341 341 340 339 336 337 337 335 335 336 336 334 334 332 330 329 328 326 321 316 317 316 311 304 304 311 318 323 329 329 330 329 329 327 330 331 330 330 328 327
339 343 344 342 341 341 340 338 338 337 336 334 333 333 335 335 333 331 330 329 328 325 319 313 311 305 301 302 305 312 318 323 324 326 326 326 322 326 326 328 328 328 328
339 342 342 340 342 343 341 339 339 337 336 335 334 333 334 335 334 332 331 329 328 327 325 322 311 304 300 301 303 306 313 316 317 317 319 320 318 322 321 322 325 326 326
339 339 340 341 340 341 340 340 339 338 337 335 335 333 335 334 333 332 331 330 329 328 326 326 324 311 301 300 302 304 307 311 312 314 315 310 313 320 320 320 319 321 324
332 336 337 337 339 341 340 339 339 339 338 337 335 335 334 335 334 332 331 331 328 327 326 325 324 323 310 301 300 302 305 306 307 309 309 304 306 320 320 319 318 319 320
313 315 320 331 334 335 338 340 340 339 337 337 336 336 334 336 335 334 332 330 327 326 325 324 324 323 321 312 303 302 301 303 304 305 304 301 302 312 317 321 319 319 321
311 311 311 314 319 328 333 337 339 338 336 335 336 337 335 335 334 333 332 329 327 325 325 324 324 322 320 316 310 305 302 303 303 303 303 301 301 305 315 318 322 321 321
311 311 311 312 312 319 330 334 337 337 334 335 336 336 334 335 334 333 331 330 329 328 327 326 324 323 323 322 321 319 314 305 303 302 303 301 300 301 305 310 317 323 321
310 311 313 315 317 314 329 331 332 333 334 336 336 335 333 332 332 333 332 331 330 328 327 326 324 323 321 321 320 319 319 319 318 316 313 307 302 300 300 304 313 322 324
310 312 314 315 318 317 328 331 332 332 334 332 331 331 331 331 331 330 328 330 329 328 327 326 324 323 323 321 318 318 319 319 318 316 313 311 309 304 301 300 300 303 316
311 312 314 318 320 317 323 332 330 331 330 329 328 328 328 329 328 328 327 327 327 326 326 324 325 323 323 322 321 319 317 316 316 314 312 310 307 308 307 303 301 302 305
311 312 314 316 320 323 328 330 329 328 326 325 325 324 324 324 324 325 324 323 322 323 323 322 323 322 321 320 319 318 318 317 314 311 310 308 306 306 305 304 304 301 301
312 313 315 316 320 323 325 326 325 325 324 323 321 321 321 322 322 321 319 319 319 320 320 319 318 318 316 315 315 315 315 315 312 312 310 308 307 305 303 302 301 301 301
311 313 314 316 318 320 321 322 320 318 318 317 316 315 313 314 315 315 314 312 312 313 313 312 311 311 308 309 309 311 312 311 310 309 306 303 302 301 302 302 301 301 300
311 311 312 314 315 316 315 313 311 310 309 311 310 310 310 311 311 310 308 308 307 307 306 309 308 307 305 303 308 309 310 309 305 304 305 303 302 302 301 302 302 302 301
307 309 311 312 311 312 310 306 305 302 302 303 301 302 303 304 303 304 303 301 301 300 299 304 304 301 300 299 302 308 307 305 303 305 303 302 302 300 299 298 299 299 296
306 308 309 310 310 309 307 303 302 300 298 297 296 296 297 298 298 297 297 294 291 291 291 294 298 294 297 294 299 304 302 305 301 302 300 297 296 292 291 291 298 292 293
306 306 307 307 307 307 306 303 299 296 294 293 292 292 292 292 292 292 291 290 290 290 289 289 290 290 291 291 294 297 297 298 298 300 299 291 292 288 289 294 294 288 292
303 304 304 304 305 303 301 300 297 295 293 291 290 289 289 290 289 289 289 289 288 288 287 287 287 287 288 288 288 289 289 290 294 293 291 290 287 288 287 290 287 291 291
300 300 300 301 300 300 300 298 296 293 291 289 288 288 288 288 288 288 288 288 287 286 286 285 285 286 286 286 287 287 287 288 288 287 286 287 286 286 287 286 287 289 288
297 297 296 296 296 297 298 296 295 292 290 289 289 288 288 288 287 287 286 286 285 285 285 285 285 285 285 285 285 285 286 286 286 286 285 285 285 285 285 287 286 286 288